When you browse on this site, cookies collect data to enhance your experience and personalize the content and advertising you see.
Visit our Privacy Policy to learn more. By continuing to use the site, you agree to this use of cookies and data.
  • en France
  • Liste des pays
  • À 7 jours
  • Température de l'eau
  • Carte satellitaire
  • Carte météo
  • Widgets météo
  • user-avatar
    Se connecter

    Météo par heure à Neuquén

    Ce jour, 16 Janvier, Mercredi

    Heure Température Précipitation Vent Pression Humidité
    00:00 +23°C° 0 mm 11 m/s 730 mmHg 18%
    01:00 +22°C° 0 mm 11 m/s 730 mmHg 21%
    02:00 +22°C° 0 mm 11 m/s 730 mmHg 25%
    03:00 +21°C° 0 mm 12 m/s 730 mmHg 29%
    04:00 +19°C° 0 mm 12 m/s 731 mmHg 33%
    05:00 +21°C° 0 mm 12 m/s 731 mmHg 34%
    06:00 +21°C° 0 mm 12 m/s 731 mmHg 34%
    07:00 +21°C° 0 mm 12 m/s 732 mmHg 35%
    08:00 +22°C° 0 mm 11 m/s 732 mmHg 31%
    09:00 +23°C° 0 mm 10 m/s 733 mmHg 26%
    10:00 +26°C° 0 mm 9 m/s 733 mmHg 22%
    11:00 +27°C° 0 mm 9 m/s 733 mmHg 19%
    12:00 +28°C° 0 mm 9 m/s 733 mmHg 16%
    13:00 +29°C° 0 mm 8 m/s 733 mmHg 14%
    14:00 +29°C° 0 mm 8 m/s 733 mmHg 13%
    15:00 +31°C° 0 mm 8 m/s 733 mmHg 13%
    16:00 +30°C° 0 mm 7 m/s 734 mmHg 12%
    17:00 +29°C° 0 mm 7 m/s 734 mmHg 16%
    18:00 +28°C° 0 mm 7 m/s 735 mmHg 19%
    19:00 +26°C° 0 mm 6 m/s 735 mmHg 23%
    20:00 +24°C° 0 mm 7 m/s 736 mmHg 24%
    21:00 +24°C° 0 mm 7 m/s 737 mmHg 26%
    22:00 +23°C° 0 mm 7 m/s 738 mmHg 27%
    23:00 +21°C° 0 mm 7 m/s 739 mmHg 32%

    Demain, 17 Janvier, Jeudi

    Heure Température Précipitation Vent Pression Humidité
    00:00 +20°C° 0 mm 7 m/s 739 mmHg 36%
    01:00 +18°C° 0 mm 7 m/s 740 mmHg 40%
    02:00 +17°C° 0 mm 6 m/s 740 mmHg 42%
    03:00 +17°C° 0 mm 6 m/s 741 mmHg 44%
    04:00 +16°C° 0 mm 5 m/s 741 mmHg 46%
    05:00 +17°C° 0 mm 5 m/s 742 mmHg 44%
    06:00 +17°C° 0 mm 5 m/s 742 mmHg 41%
    07:00 +19°C° 0 mm 5 m/s 743 mmHg 38%
    08:00 +20°C° 0 mm 5 m/s 743 mmHg 34%
    09:00 +22°C° 0 mm 5 m/s 743 mmHg 30%
    10:00 +23°C° 0 mm 5 m/s 742 mmHg 26%
    11:00 +25°C° 0 mm 5 m/s 742 mmHg 24%
    12:00 +26°C° 0 mm 5 m/s 742 mmHg 22%
    13:00 +27°C° 0 mm 5 m/s 741 mmHg 20%
    14:00 +27°C° 0 mm 5 m/s 740 mmHg 19%
    15:00 +28°C° 0 mm 5 m/s 740 mmHg 18%
    16:00 +28°C° 0 mm 5 m/s 739 mmHg 16%
    17:00 +28°C° 0 mm 5 m/s 739 mmHg 16%
    18:00 +27°C° 0 mm 4 m/s 739 mmHg 16%
    19:00 +27°C° 0 mm 4 m/s 739 mmHg 16%
    20:00 +26°C° 0 mm 5 m/s 739 mmHg 17%
    21:00 +25°C° 0 mm 5 m/s 739 mmHg 17%
    22:00 +25°C° 0 mm 5 m/s 739 mmHg 18%
    23:00 +23°C° 0 mm 5 m/s 739 mmHg 18%

    Après-demain, 18 Janvier, Vendredi

    Heure Température Précipitation Vent Pression Humidité
    00:00 +23°C° 0 mm 5 m/s 739 mmHg 18%
    01:00 +22°C° 0 mm 4 m/s 739 mmHg 19%
    02:00 +21°C° 0 mm 4 m/s 739 mmHg 20%
    03:00 +21°C° 0 mm 4 m/s 738 mmHg 22%
    04:00 +20°C° 0 mm 3 m/s 738 mmHg 24%
    05:00 +21°C° 0 mm 4 m/s 738 mmHg 24%
    06:00 +23°C° 0 mm 4 m/s 739 mmHg 24%
    07:00 +25°C° 0 mm 5 m/s 739 mmHg 24%
    08:00 +26°C° 0 mm 5 m/s 739 mmHg 20%
    09:00 +27°C° 0 mm 5 m/s 738 mmHg 17%
    10:00 +29°C° 0 mm 6 m/s 738 mmHg 13%
    11:00 +30°C° 0 mm 6 m/s 738 mmHg 12%
    12:00 +30°C° 0 mm 6 m/s 737 mmHg 11%
    13:00 +32°C° 0 mm 6 m/s 736 mmHg 10%
    14:00 +33°C° 0 mm 6 m/s 736 mmHg 10%
    15:00 +33°C° 0 mm 6 m/s 735 mmHg 10%
    16:00 +33°C° 0 mm 6 m/s 735 mmHg 11%
    17:00 +32°C° 0 mm 5 m/s 735 mmHg 12%
    18:00 +32°C° 0 mm 5 m/s 735 mmHg 13%
    19:00 +30°C° 0 mm 5 m/s 735 mmHg 14%
    20:00 +29°C° 0 mm 5 m/s 735 mmHg 15%
    21:00 +28°C° 0 mm 5 m/s 735 mmHg 16%
    22:00 +27°C° 0 mm 5 m/s 735 mmHg 18%
    23:00 +27°C° 0 mm 5 m/s 735 mmHg 20%

    19 Janvier, Samedi

    Heure Température Précipitation Vent Pression Humidité
    00:00 +26°C° 0 mm 5 m/s 735 mmHg 23%
    01:00 +25°C° 0 mm 5 m/s 734 mmHg 25%
    02:00 +25°C° 0 mm 5 m/s 734 mmHg 34%
    03:00 +23°C° 0 mm 5 m/s 734 mmHg 43%
    04:00 +22°C° 0 mm 5 m/s 734 mmHg 52%
    05:00 +23°C° 0 mm 6 m/s 734 mmHg 49%
    06:00 +24°C° 0 mm 6 m/s 734 mmHg 47%
    07:00 +26°C° 0 mm 7 m/s 734 mmHg 44%
    08:00 +27°C° 0 mm 7 m/s 734 mmHg 40%
    09:00 +29°C° 0 mm 7 m/s 733 mmHg 35%
    10:00 +32°C° 0 mm 7 m/s 733 mmHg 31%
    11:00 +33°C° 0 mm 6 m/s 732 mmHg 28%
    12:00 +34°C° 0 mm 6 m/s 732 mmHg 25%
    13:00 +36°C° 0 mm 5 m/s 731 mmHg 22%
    14:00 +36°C° 0 mm 4 m/s 731 mmHg 19%
    15:00 +37°C° 0 mm 4 m/s 730 mmHg 17%
    16:00 +38°C° 0 mm 3 m/s 729 mmHg 15%
    17:00 +37°C° 0 mm 2 m/s 729 mmHg 16%
    18:00 +36°C° 0 mm 2 m/s 729 mmHg 16%
    19:00 +34°C° 0 mm 1 m/s 729 mmHg 16%
    20:00 +33°C° 0 mm 1 m/s 729 mmHg 17%
    21:00 +32°C° 0 mm 1 m/s 730 mmHg 18%
    22:00 +32°C° 0 mm 1 m/s 730 mmHg 19%
    23:00 +31°C° 0 mm 2 m/s 730 mmHg 21%

    20 Janvier, Dimanche

    Heure Température Précipitation Vent Pression Humidité
    00:00 +30°C° 0 mm 4 m/s 729 mmHg 22%
    01:00 +30°C° 0 mm 5 m/s 729 mmHg 24%
    02:00 +29°C° 0 mm 5 m/s 729 mmHg 23%
    03:00 +28°C° 0 mm 5 m/s 729 mmHg 23%
    04:00 +27°C° 0 mm 5 m/s 729 mmHg 22%
    05:00 +29°C° 0 mm 5 m/s 729 mmHg 20%
    06:00 +30°C° 0 mm 6 m/s 730 mmHg 17%
    07:00 +32°C° 0 mm 7 m/s 730 mmHg 15%
    08:00 +34°C° 0 mm 6 m/s 730 mmHg 14%
    09:00 +35°C° 0 mm 6 m/s 730 mmHg 13%
    10:00 +36°C° 0 mm 5 m/s 729 mmHg 12%
    11:00 +37°C° 0 mm 5 m/s 729 mmHg 12%
    12:00 +38°C° 0 mm 4 m/s 728 mmHg 12%
    13:00 +40°C° 0 mm 4 m/s 728 mmHg 11%
    14:00 +40°C° 0 mm 5 m/s 727 mmHg 10%
    15:00 +41°C° 0 mm 5 m/s 727 mmHg 9%
    16:00 +42°C° 0 mm 6 m/s 726 mmHg 7%
    17:00 +40°C° 0 mm 7 m/s 726 mmHg 8%
    18:00 +39°C° 0 mm 9 m/s 727 mmHg 9%
    19:00 +38°C° 0 mm 10 m/s 727 mmHg 10%
    20:00 +36°C° 0 mm 11 m/s 728 mmHg 12%
    21:00 +33°C° 0 mm 11 m/s 728 mmHg 15%
    22:00 +31°C° 0 mm 11 m/s 729 mmHg 17%
    23:00 +29°C° 0 mm 10 m/s 729 mmHg 17%

    21 Janvier, Lundi

    Heure Température Précipitation Vent Pression Humidité
    00:00 +28°C° 0 mm 10 m/s 729 mmHg 16%
    01:00 +27°C° 0 mm 9 m/s 729 mmHg 16%
    02:00 +26°C° 0 mm 9 m/s 729 mmHg 15%
    03:00 +24°C° 0 mm 8 m/s 729 mmHg 15%
    04:00 +24°C° 0 mm 8 m/s 729 mmHg 15%
    05:00 +24°C° 0 mm 8 m/s 730 mmHg 16%
    06:00 +26°C° 0 mm 8 m/s 730 mmHg 18%
    07:00 +27°C° 0 mm 8 m/s 731 mmHg 19%
    08:00 +28°C° 0 mm 8 m/s 731 mmHg 20%
    09:00 +31°C° 0 mm 8 m/s 731 mmHg 20%
    10:00 +32°C° 0 mm 8 m/s 731 mmHg 20%
    11:00 +32°C° 0 mm 8 m/s 730 mmHg 20%
    12:00 +33°C° 0 mm 8 m/s 730 mmHg 20%
    13:00 +33°C° 0 mm 9 m/s 730 mmHg 20%
    14:00 +34°C° 0 mm 7 m/s 729 mmHg 18%
    15:00 +34°C° 0 mm 6 m/s 729 mmHg 17%
    16:00 +35°C° 0 mm 5 m/s 728 mmHg 15%
    17:00 +35°C° 0 mm 5 m/s 728 mmHg 14%
    18:00 +34°C° 0 mm 5 m/s 729 mmHg 14%
    19:00 +34°C° 0 mm 5 m/s 729 mmHg 13%
    20:00 +32°C° 0 mm 6 m/s 729 mmHg 15%
    21:00 +30°C° 0 mm 7 m/s 730 mmHg 18%
    22:00 +28°C° 0 mm 8 m/s 730 mmHg 20%
    23:00 +27°C° 0 mm 8 m/s 730 mmHg 23%
    Voir plus